カタログに戻る

STARLINK-34422

運用中通信VLEO
NORAD 64415·PAYLOAD·🇺🇸 United States

打ち上げ Jun 17, 2025 から Vandenberg Space Force Base

Loading…

次のパス (今後24時間)

TLE

最新Source: CelesTrak SupGP

元期: Sep 14, 2026, 15:02 UTC

1 64415C 25129D   26257.62687500  .00014988  00000+0  52149-3 0  2575
2 64415  69.9990 316.6054 0003602 274.3638 144.5096 15.29562740    14

AllMySatでSTARLINK-34422をリアルタイム追跡

Download on the App Store